| time (UTC) | temp F | wind direction | speed MPH | gust MPH | rain 1hr in | rain 24hr in | rain mn in | humidity % | barometer mb |
| 20260507104050 | 44 | 102 | 1.0 | 6.0 | 0.00 | 0.00 | 0.00 | 85 | 1013.9 |
| 20260507103546 | 44 | 253 | 3.0 | 7.0 | 0.00 | 0.00 | 0.00 | 85 | 1014.1 |
| 20260507103043 | 44 | 107 | 2.0 | 6.0 | 0.00 | 0.00 | 0.00 | 85 | 1014.0 |
| 20260507102539 | 44 | 74 | 2.0 | 7.0 | 0.00 | 0.00 | 0.00 | 85 | 1014.3 |
| 20260507102036 | 44 | 107 | 2.0 | 6.0 | 0.00 | 0.00 | 0.00 | 84 | 1014.3 |
| 20260507101531 | 44 | 139 | 3.0 | 7.0 | 0.00 | 0.00 | 0.00 | 84 | 1014.3 |
| 20260507101028 | 45 | 110 | 2.0 | 7.0 | 0.00 | 0.00 | 0.00 | 84 | 1014.2 |
| 20260507100525 | 45 | 239 | 4.0 | 6.0 | 0.00 | 0.00 | 0.00 | 84 | 1014.4 |
| 20260507100023 | 44 | 126 | 1.0 | 6.0 | 0.00 | 0.00 | 0.00 | 84 | 1014.5 |
| 20260507095521 | 45 | 151 | 3.0 | 5.0 | 0.00 | 0.00 | 0.00 | 84 | 1014.6 |
| 20260507095017 | 45 | 169 | 3.0 | 6.0 | 0.00 | 0.00 | 0.00 | 84 | 1014.4 |
| 20260507094514 | 45 | 281 | 3.0 | 7.0 | 0.00 | 0.00 | 0.00 | 84 | 1014.5 |
| 20260507094011 | 45 | 247 | 6.0 | 7.0 | 0.00 | 0.00 | 0.00 | 84 | 1014.7 |
| 20260507093508 | 45 | 88 | 3.0 | 5.0 | 0.00 | 0.00 | 0.00 | 83 | 1014.5 |
| 20260507093007 | 45 | 26 | 3.0 | 6.0 | 0.00 | 0.00 | 0.00 | 83 | 1014.4 |
| 20260507092503 | 45 | 142 | 3.0 | 6.0 | 0.00 | 0.00 | 0.00 | 83 | 1014.6 |
| 20260507091959 | 45 | 260 | 5.0 | 6.0 | 0.00 | 0.00 | 0.00 | 82 | 1014.7 |
| 20260507091456 | 45 | 105 | 2.0 | 5.0 | 0.00 | 0.00 | 0.00 | 82 | 1014.6 |
| 20260507090952 | 45 | 87 | 2.0 | 9.0 | 0.00 | 0.00 | 0.00 | 81 | 1014.7 |
| 20260507090448 | 45 | 340 | 3.0 | 5.0 | 0.00 | 0.00 | 0.00 | 81 | 1014.7 |
| 20260507085945 | 45 | 80 | 2.0 | 5.0 | 0.00 | 0.00 | 0.00 | 81 | 1014.8 |
| 20260507085442 | 45 | 127 | 1.0 | 7.0 | 0.00 | 0.00 | 0.00 | 81 | 1014.9 |
| 20260507084939 | 45 | 69 | 1.0 | 5.0 | 0.00 | 0.00 | 0.00 | 80 | 1014.8 |
| 20260507084436 | 45 | 115 | 2.0 | 5.0 | 0.00 | 0.00 | 0.00 | 80 | 1014.9 |
| 20260507083933 | 45 | 168 | 4.0 | 5.0 | 0.00 | 0.00 | 0.00 | 80 | 1014.7 |
| 20260507083429 | 45 | 280 | 4.0 | 5.0 | 0.00 | 0.00 | 0.00 | 80 | 1014.9 |
| 20260507082925 | 45 | 174 | 2.0 | 3.0 | 0.00 | 0.00 | 0.00 | 80 | 1015.0 |
| 20260507082421 | 45 | 70 | 1.0 | 2.0 | 0.00 | 0.00 | 0.00 | 80 | 1014.9 |
| 20260507081918 | 46 | 211 | 3.0 | 3.0 | 0.00 | 0.00 | 0.00 | 79 | 1015.1 |
| 20260507081414 | 46 | 205 | 3.0 | 5.0 | 0.00 | 0.00 | 0.00 | 79 | 1015.2 |
| 20260507080911 | 46 | 115 | 2.0 | 6.0 | 0.00 | 0.00 | 0.00 | 79 | 1015.1 |
| 20260507080408 | 46 | 111 | 2.0 | 5.0 | 0.00 | 0.00 | 0.00 | 79 | 1015.1 |
| 20260507075903 | 46 | 83 | 2.0 | 5.0 | 0.00 | 0.00 | 0.00 | 78 | 1015.1 |
| 20260507075359 | 46 | 60 | 2.0 | 3.0 | 0.00 | 0.00 | 0.00 | 78 | 1015.3 |
| 20260507074856 | 46 | 100 | 1.0 | 3.0 | 0.00 | 0.00 | 0.00 | 77 | 1015.2 |
| 20260507074353 | 46 | 61 | 3.0 | 6.0 | 0.00 | 0.00 | 0.00 | 77 | 1015.0 |
| 20260507073850 | 46 | 99 | 2.0 | 3.0 | 0.00 | 0.00 | 0.00 | 76 | 1015.1 |
| 20260507073347 | 46 | 189 | 3.0 | 5.0 | 0.00 | 0.00 | 0.00 | 76 | 1015.3 |
| 20260507072844 | 46 | 84 | 0.0 | 2.0 | 0.00 | 0.00 | 0.00 | 76 | 1015.2 |
| 20260507072341 | 47 | 91 | 1.0 | 3.0 | 0.00 | 0.00 | 0.00 | 76 | 1015.3 |
| 20260507071839 | 47 | 113 | 3.0 | 6.0 | 0.00 | 0.00 | 0.00 | 75 | 1015.5 |
| 20260507071336 | 47 | 63 | 1.0 | 3.0 | 0.00 | 0.00 | 0.00 | 75 | 1015.4 |
| 20260507070832 | 47 | 44 | 1.0 | 3.0 | 0.00 | 0.00 | 0.00 | 74 | 1015.6 |
| 20260507070329 | 47 | 201 | 3.0 | 5.0 | 0.00 | 0.00 | 0.00 | 74 | 1015.5 |
| 20260507065826 | 47 | 125 | 3.0 | 5.0 | 0.00 | 0.00 | 0.00 | 74 | 1015.7 |
| 20260507065323 | 47 | 98 | 2.0 | 6.0 | 0.00 | 0.00 | 0.00 | 74 | 1015.8 |
| 20260507064820 | 47 | 180 | 4.0 | 6.0 | 0.00 | 0.00 | 0.00 | 74 | 1015.8 |
| 20260507064318 | 47 | 122 | 3.0 | 6.0 | 0.00 | 0.00 | 0.00 | 74 | 1015.8 |
| 20260507063816 | 47 | 103 | 2.0 | 5.0 | 0.00 | 0.00 | 0.00 | 74 | 1016.0 |
| 20260507063313 | 47 | 22 | 3.0 | 3.0 | 0.00 | 0.00 | 0.00 | 73 | 1015.9 |
| 20260507062809 | 47 | 110 | 2.0 | 2.0 | 0.00 | 0.00 | 0.00 | 73 | 1016.1 |
| 20260507062306 | 47 | 98 | 3.0 | 5.0 | 0.00 | 0.00 | 0.00 | 73 | 1016.0 |
| 20260507061804 | 47 | 106 | 3.0 | 6.0 | 0.00 | 0.00 | 0.00 | 72 | 1016.0 |
| 20260507061302 | 47 | 149 | 3.0 | 5.0 | 0.00 | 0.00 | 0.00 | 72 | 1016.0 |
| 20260507060800 | 48 | 84 | 1.0 | 3.0 | 0.00 | 0.00 | 0.00 | 72 | 1016.1 |
| 20260507060256 | 48 | 234 | 3.0 | 8.0 | 0.00 | 0.00 | 0.00 | 71 | 1016.0 |
| 20260507055753 | 48 | 193 | 4.0 | 6.0 | 0.00 | 0.00 | 0.00 | 70 | 1016.2 |
| 20260507055248 | 48 | 132 | 3.0 | 6.0 | 0.00 | 0.00 | 0.00 | 70 | 1016.1 |
| 20260507054745 | 49 | 170 | 5.0 | 6.0 | 0.00 | 0.00 | 0.00 | 69 | 1016.2 |
| 20260507054242 | 49 | 88 | 2.0 | 7.0 | 0.00 | 0.00 | 0.00 | 69 | 1016.1 |
| 20260507053739 | 49 | 190 | 2.0 | 6.0 | 0.00 | 0.00 | 0.00 | 68 | 1016.1 |
| 20260507053236 | 49 | 91 | 1.0 | 5.0 | 0.00 | 0.00 | 0.00 | 68 | 1016.0 |
| 20260507052735 | 49 | 87 | 2.0 | 6.0 | 0.00 | 0.00 | 0.00 | 67 | 1016.1 |
| 20260507052231 | 49 | 236 | 4.0 | 6.0 | 0.00 | 0.00 | 0.00 | 67 | 1016.2 |
| 20260507051729 | 49 | 191 | 3.0 | 5.0 | 0.00 | 0.00 | 0.00 | 66 | 1016.1 |
| 20260507051226 | 49 | 121 | 1.0 | 3.0 | 0.00 | 0.00 | 0.00 | 66 | 1016.1 |
| 20260507050722 | 49 | 217 | 3.0 | 7.0 | 0.00 | 0.00 | 0.00 | 65 | 1016.2 |
| 20260507050220 | 49 | 186 | 3.0 | 5.0 | 0.00 | 0.00 | 0.00 | 65 | 1016.2 |
| 20260507045716 | 49 | 132 | 3.0 | 5.0 | 0.00 | 0.00 | 0.00 | 64 | 1016.1 |
| 20260507045212 | 49 | 191 | 4.0 | 6.0 | 0.00 | 0.00 | 0.00 | 63 | 1016.4 |
| 20260507044710 | 50 | 95 | 2.0 | 3.0 | 0.00 | 0.00 | 0.00 | 62 | 1016.4 |
| 20260507044206 | 50 | 99 | 1.0 | 3.0 | 0.00 | 0.00 | 0.00 | 62 | 1016.4 |
| 20260507043703 | 50 | 114 | 3.0 | 5.0 | 0.00 | 0.00 | 0.00 | 61 | 1016.2 |
| 20260507043200 | 50 | 136 | 3.0 | 5.0 | 0.00 | 0.00 | 0.00 | 60 | 1016.4 |
| 20260507042656 | 50 | 83 | 0.0 | 2.0 | 0.00 | 0.00 | 0.00 | 59 | 1016.5 |
| 20260507042151 | 50 | 181 | 2.0 | 5.0 | 0.00 | 0.00 | 0.00 | 58 | 1016.4 |
| 20260507041648 | 50 | 114 | 0.0 | 2.0 | 0.00 | 0.00 | 0.00 | 57 | 1016.4 |
| 20260507041144 | 51 | 44 | 0.0 | 3.0 | 0.00 | 0.00 | 0.00 | 56 | 1016.2 |
| 20260507040642 | 51 | 102 | 0.0 | 1.0 | 0.00 | 0.00 | 0.00 | 55 | 1016.4 |
| 20260507040138 | 51 | 98 | 1.0 | 8.0 | 0.00 | 0.00 | 0.00 | 53 | 1016.4 |
| 20260507035634 | 51 | 113 | 2.0 | 6.0 | 0.00 | 0.00 | 0.00 | 52 | 1016.2 |
| 20260507035130 | 51 | 102 | 1.0 | 6.0 | 0.00 | 0.00 | 0.00 | 51 | 1016.2 |
| 20260507034627 | 51 | 261 | 3.0 | 5.0 | 0.00 | 0.00 | 0.00 | 49 | 1016.4 |
| 20260507034125 | 51 | 149 | 3.0 | 3.0 | 0.00 | 0.00 | 0.00 | 49 | 1016.4 |
| 20260507033623 | 52 | 92 | 0.0 | 1.0 | 0.00 | 0.00 | 0.00 | 48 | 1016.4 |
| 20260507033120 | 52 | 97 | 0.0 | 2.0 | 0.00 | 0.00 | 0.00 | 46 | 1016.2 |
| 20260507032617 | 52 | 117 | 0.0 | 0.0 | 0.00 | 0.00 | 0.00 | 45 | 1016.2 |
| 20260507032113 | 52 | 87 | 1.0 | 3.0 | 0.00 | 0.00 | 0.00 | 44 | 1016.6 |
| 20260507031610 | 52 | 132 | 3.0 | 5.0 | 0.00 | 0.00 | 0.00 | 43 | 1016.4 |
| 20260507031106 | 52 | 82 | 0.0 | 0.0 | 0.00 | 0.00 | 0.00 | 43 | 1016.2 |
| 20260507030603 | 53 | 94 | 0.0 | 0.0 | 0.00 | 0.00 | 0.00 | 43 | 1016.1 |
| 20260507030101 | 53 | 90 | 0.0 | 0.0 | 0.00 | 0.00 | 0.00 | 42 | 1016.0 |
| 20260507025558 | 53 | 85 | 0.0 | 1.0 | 0.00 | 0.00 | 0.00 | 44 | 1016.2 |
| 20260507025055 | 53 | 100 | 0.0 | 1.0 | 0.00 | 0.00 | 0.00 | 43 | 1016.0 |
| 20260507024553 | 53 | 92 | 0.0 | 0.0 | 0.00 | 0.00 | 0.00 | 43 | 1016.0 |
| 20260507024050 | 53 | 88 | 0.0 | 1.0 | 0.00 | 0.00 | 0.00 | 44 | 1016.1 |
| 20260507023545 | 53 | 93 | 0.0 | 0.0 | 0.00 | 0.00 | 0.00 | 44 | 1015.9 |
| 20260507023043 | 53 | 92 | 0.0 | 0.0 | 0.00 | 0.00 | 0.00 | 45 | 1015.8 |
| 20260507022540 | 53 | 90 | 0.0 | 0.0 | 0.00 | 0.00 | 0.00 | 46 | 1015.9 |
| 20260507022035 | 53 | 93 | 0.0 | 0.0 | 0.00 | 0.00 | 0.00 | 44 | 1015.7 |
| 20260507021531 | 54 | 93 | 0.0 | 0.0 | 0.00 | 0.00 | 0.00 | 45 | 1015.6 |
| 20260507021028 | 54 | 95 | 0.0 | 0.0 | 0.00 | 0.00 | 0.00 | 46 | 1015.8 |
| 20260507020525 | 55 | 92 | 0.0 | 0.0 | 0.00 | 0.00 | 0.00 | 42 | 1015.5 |
| 20260507020022 | 55 | 92 | 0.0 | 0.0 | 0.00 | 0.00 | 0.00 | 41 | 1015.5 |
| 20260507015520 | 55 | 91 | 0.0 | 0.0 | 0.00 | 0.00 | 0.00 | 39 | 1015.5 |
| 20260507015018 | 55 | 90 | 0.0 | 0.0 | 0.00 | 0.00 | 0.00 | 39 | 1015.5 |
| 20260507014514 | 55 | 98 | 0.0 | 0.0 | 0.00 | 0.00 | 0.00 | 38 | 1015.6 |
| 20260507014010 | 56 | 92 | 0.0 | 0.0 | 0.00 | 0.00 | 0.00 | 39 | 1015.5 |
| 20260507013506 | 56 | 93 | 0.0 | 0.0 | 0.00 | 0.00 | 0.00 | 37 | 1015.6 |
| 20260507013004 | 56 | 115 | 0.0 | 0.0 | 0.00 | 0.00 | 0.00 | 37 | 1015.5 |
| 20260507012501 | 56 | 109 | 0.0 | 0.0 | 0.00 | 0.00 | 0.00 | 37 | 1015.5 |
| 20260507011957 | 56 | 96 | 0.0 | 0.0 | 0.00 | 0.00 | 0.00 | 36 | 1015.5 |
| 20260507011454 | 56 | 92 | 0.0 | 0.0 | 0.00 | 0.00 | 0.00 | 36 | 1015.4 |
| 20260507010950 | 57 | 93 | 0.0 | 0.0 | 0.00 | 0.00 | 0.00 | 36 | 1015.6 |
| 20260507010445 | 57 | 97 | 0.0 | 0.0 | 0.00 | 0.00 | 0.00 | 35 | 1015.7 |
| 20260507005942 | 57 | 92 | 0.0 | 0.0 | 0.00 | 0.00 | 0.00 | 35 | 1015.4 |
| 20260507005439 | 57 | 93 | 0.0 | 0.0 | 0.00 | 0.00 | 0.00 | 34 | 1015.5 |
| 20260507004935 | 58 | 89 | 0.0 | 0.0 | 0.00 | 0.00 | 0.00 | 35 | 1015.5 |
| 20260507004432 | 58 | 81 | 0.0 | 1.0 | 0.00 | 0.00 | 0.00 | 34 | 1015.6 |
| 20260507003930 | 58 | 84 | 0.0 | 0.0 | 0.00 | 0.00 | 0.00 | 33 | 1015.6 |
| 20260507003425 | 58 | 121 | 0.0 | 1.0 | 0.00 | 0.00 | 0.00 | 33 | 1015.6 |
| 20260507002920 | 59 | 81 | 0.0 | 0.0 | 0.00 | 0.00 | 0.00 | 31 | 1015.6 |
| 20260507002417 | 59 | 72 | 0.0 | 2.0 | 0.00 | 0.00 | 0.00 | 32 | 1015.6 |
| 20260507001914 | 59 | 156 | 0.0 | 2.0 | 0.00 | 0.00 | 0.00 | 31 | 1015.6 |
| 20260507001410 | 59 | 77 | 0.0 | 3.0 | 0.00 | 0.00 | 0.00 | 32 | 1015.7 |
| 20260507000908 | 59 | 37 | 1.0 | 5.0 | 0.00 | 0.00 | 0.00 | 32 | 1015.6 |
| 20260507000405 | 59 | 177 | 2.0 | 5.0 | 0.00 | 0.00 | 0.00 | 31 | 1015.5 |
| 20260506235859 | 59 | 95 | 3.0 | 7.0 | 0.00 | 0.00 | 0.00 | 31 | 1015.8 |
| 20260506235356 | 60 | 319 | 5.0 | 9.0 | 0.00 | 0.00 | 0.00 | 29 | 1015.8 |
| 20260506234852 | 60 | 33 | 2.0 | 5.0 | 0.00 | 0.00 | 0.00 | 31 | 1015.6 |
| 20260506234350 | 59 | 39 | 2.0 | 3.0 | 0.00 | 0.00 | 0.00 | 29 | 1015.8 |
| 20260506233847 | 59 | 17 | 0.0 | 3.0 | 0.00 | 0.00 | 0.00 | 31 | 1015.9 |
| 20260506233343 | 60 | 133 | 0.0 | 3.0 | 0.00 | 0.00 | 0.00 | 30 | 1015.9 |
| 20260506232841 | 60 | 106 | 3.0 | 5.0 | 0.00 | 0.00 | 0.00 | 29 | 1016.0 |
| 20260506232336 | 59 | 124 | 2.0 | 5.0 | 0.00 | 0.00 | 0.00 | 30 | 1016.0 |
| 20260506231833 | 59 | 85 | 4.0 | 6.0 | 0.00 | 0.00 | 0.00 | 30 | 1016.1 |
| 20260506231331 | 59 | 219 | 3.0 | 6.0 | 0.00 | 0.00 | 0.00 | 30 | 1016.1 |
| 20260506230828 | 59 | 247 | 3.0 | 5.0 | 0.00 | 0.00 | 0.00 | 30 | 1016.0 |
| 20260506230325 | 59 | 76 | 0.0 | 7.0 | 0.00 | 0.00 | 0.00 | 31 | 1016.1 |
| 20260506225820 | 58 | 144 | 1.0 | 5.0 | 0.00 | 0.00 | 0.00 | 32 | 1016.1 |
| 20260506225318 | 58 | 35 | 1.0 | 3.0 | 0.00 | 0.00 | 0.00 | 30 | 1015.9 |
| 20260506224815 | 57 | 66 | 0.0 | 3.0 | 0.00 | 0.00 | 0.00 | 31 | 1016.1 |
| 20260506224312 | 58 | 85 | 2.0 | 2.0 | 0.00 | 0.00 | 0.00 | 31 | 1016.2 |
| 20260506223808 | 59 | 45 | 4.0 | 5.0 | 0.00 | 0.00 | 0.00 | 30 | 1016.2 |
| 20260506223303 | 59 | 79 | 2.0 | 7.0 | 0.00 | 0.00 | 0.00 | 29 | 1016.4 |
| 20260506222800 | 60 | 4 | 5.0 | 7.0 | 0.00 | 0.00 | 0.00 | 28 | 1016.5 |
| 20260506222255 | 59 | 86 | 5.0 | 8.0 | 0.00 | 0.00 | 0.00 | 28 | 1016.1 |
| 20260506221749 | 59 | 27 | 2.0 | 6.0 | 0.00 | 0.00 | 0.00 | 29 | 1016.0 |
| 20260506221246 | 60 | 69 | 2.0 | 2.0 | 0.00 | 0.00 | 0.00 | 28 | 1016.0 |
| 20260506220744 | 58 | 49 | 7.0 | 9.0 | 0.00 | 0.00 | 0.00 | 32 | 1016.5 |
| 20260506220238 | 60 | 27 | 2.0 | 9.0 | 0.00 | 0.00 | 0.00 | 28 | 1016.5 |
| 20260506215735 | 60 | 359 | 2.0 | 11.0 | 0.00 | 0.00 | 0.00 | 29 | 1016.6 |
| 20260506215231 | 60 | 343 | 3.0 | 8.0 | 0.00 | 0.00 | 0.00 | 29 | 1016.5 |
| 20260506214727 | 60 | 342 | 2.0 | 7.0 | 0.00 | 0.00 | 0.00 | 29 | 1016.4 |
| 20260506214225 | 60 | 7 | 7.0 | 9.0 | 0.00 | 0.00 | 0.00 | 27 | 1016.7 |
| 20260506213722 | 59 | 78 | 0.0 | 0.0 | 0.00 | 0.00 | 0.00 | 30 | 1016.7 |
| 20260506213220 | 59 | 86 | 0.0 | 5.0 | 0.00 | 0.00 | 0.00 | 27 | 1016.7 |
| 20260506212717 | 56 | 72 | 1.0 | 1.0 | 0.00 | 0.00 | 0.00 | 32 | 1016.7 |
| 20260506212212 | 58 | 52 | 2.0 | 5.0 | 0.00 | 0.00 | 0.00 | 32 | 1016.8 |
| 20260506211708 | 56 | 50 | 0.0 | 2.0 | 0.00 | 0.00 | 0.00 | 31 | 1017.2 |
| 20260506211204 | 58 | 8 | 5.0 | 7.0 | 0.00 | 0.00 | 0.00 | 31 | 1017.1 |
| 20260506210702 | 59 | 42 | 2.0 | 7.0 | 0.00 | 0.00 | 0.00 | 32 | 1017.0 |
| 20260506210158 | 59 | 335 | 8.0 | 11.0 | 0.00 | 0.00 | 0.00 | 30 | 1017.0 |
| 20260506205655 | 56 | 42 | 2.0 | 5.0 | 0.00 | 0.00 | 0.00 | 32 | 1017.1 |
| 20260506205150 | 59 | 5 | 5.0 | 9.0 | 0.00 | 0.00 | 0.00 | 31 | 1017.2 |
| 20260506204648 | 59 | 64 | 1.0 | 5.0 | 0.00 | 0.00 | 0.00 | 31 | 1017.3 |
| 20260506204145 | 56 | 73 | 1.0 | 2.0 | 0.00 | 0.00 | 0.00 | 33 | 1017.4 |
| 20260506203643 | 57 | 57 | 3.0 | 3.0 | 0.00 | 0.00 | 0.00 | 33 | 1017.4 |
| 20260506203140 | 56 | 320 | 4.0 | 6.0 | 0.00 | 0.00 | 0.00 | 32 | 1017.4 |
| 20260506202638 | 57 | 49 | 1.0 | 6.0 | 0.00 | 0.00 | 0.00 | 31 | 1017.6 |
| 20260506202133 | 58 | 52 | 4.0 | 6.0 | 0.00 | 0.00 | 0.00 | 31 | 1017.7 |
| 20260506201631 | 57 | 76 | 0.0 | 10.0 | 0.00 | 0.00 | 0.00 | 31 | 1017.8 |
| 20260506201127 | 57 | 83 | 1.0 | 9.0 | 0.00 | 0.00 | 0.00 | 32 | 1017.7 |
| 20260506200624 | 56 | 345 | 6.0 | 10.0 | 0.00 | 0.00 | 0.00 | 32 | 1017.9 |
| 20260506200120 | 55 | 80 | 0.0 | 7.0 | 0.00 | 0.00 | 0.00 | 32 | 1017.8 |
| 20260506195617 | 59 | 304 | 7.0 | 14.0 | 0.00 | 0.00 | 0.00 | 32 | 1018.1 |
| 20260506195113 | 57 | 93 | 2.0 | 5.0 | 0.00 | 0.00 | 0.00 | 30 | 1017.8 |
| 20260506194611 | 55 | 235 | 1.0 | 9.0 | 0.00 | 0.00 | 0.00 | 34 | 1018.1 |
| 20260506194107 | 57 | 80 | 0.0 | 8.0 | 0.00 | 0.00 | 0.00 | 33 | 1018.0 |
| 20260506193605 | 57 | 53 | 3.0 | 3.0 | 0.00 | 0.00 | 0.00 | 33 | 1018.1 |
| 20260506193102 | 56 | 43 | 3.0 | 5.0 | 0.00 | 0.00 | 0.00 | 34 | 1018.3 |
| 20260506192559 | 55 | 43 | 3.0 | 6.0 | 0.00 | 0.00 | 0.00 | 32 | 1018.2 |
| 20260506192055 | 56 | 323 | 3.0 | 7.0 | 0.00 | 0.00 | 0.00 | 32 | 1018.2 |
| 20260506191551 | 54 | 230 | 4.0 | 5.0 | 0.00 | 0.00 | 0.00 | 31 | 1018.2 |
| 20260506191047 | 55 | 30 | 1.0 | 5.0 | 0.00 | 0.00 | 0.00 | 33 | 1018.2 |
| 20260506190545 | 55 | 12 | 4.0 | 8.0 | 0.00 | 0.00 | 0.00 | 32 | 1018.3 |
| 20260506190042 | 56 | 319 | 5.0 | 7.0 | 0.00 | 0.00 | 0.00 | 31 | 1018.5 |
| 20260506185539 | 55 | 61 | 4.0 | 9.0 | 0.00 | 0.00 | 0.00 | 32 | 1018.4 |
| 20260506185035 | 57 | 132 | 2.0 | 5.0 | 0.00 | 0.00 | 0.00 | 30 | 1018.4 |
| 20260506184533 | 56 | 56 | 4.0 | 8.0 | 0.00 | 0.00 | 0.00 | 31 | 1018.4 |
| 20260506184030 | 56 | 36 | 4.0 | 8.0 | 0.00 | 0.00 | 0.00 | 32 | 1018.5 |
| 20260506183526 | 57 | 359 | 7.0 | 11.0 | 0.00 | 0.00 | 0.00 | 31 | 1018.5 |
| 20260506183023 | 55 | 345 | 5.0 | 6.0 | 0.00 | 0.00 | 0.00 | 36 | 1018.5 |
| 20260506182520 | 54 | 82 | 0.0 | 5.0 | 0.00 | 0.00 | 0.00 | 33 | 1018.4 |
| 20260506182017 | 55 | 320 | 4.0 | 7.0 | 0.00 | 0.00 | 0.00 | 31 | 1018.4 |
| 20260506181515 | 54 | 82 | 0.0 | 0.0 | 0.00 | 0.00 | 0.00 | 31 | 1018.4 |
| 20260506181012 | 54 | 47 | 0.0 | 5.0 | 0.00 | 0.00 | 0.00 | 34 | 1018.6 |
| 20260506180508 | 55 | 71 | 1.0 | 9.0 | 0.00 | 0.00 | 0.00 | 32 | 1018.5 |
| 20260506180006 | 54 | 282 | 4.0 | 6.0 | 0.00 | 0.00 | 0.00 | 33 | 1018.8 |
| 20260506175501 | 53 | 49 | 0.0 | 6.0 | 0.00 | 0.00 | 0.00 | 32 | 1018.9 |
| 20260506174958 | 52 | 82 | 0.0 | 3.0 | 0.00 | 0.00 | 0.00 | 33 | 1019.0 |
| 20260506174456 | 53 | 17 | 3.0 | 5.0 | 0.00 | 0.00 | 0.00 | 34 | 1019.1 |
| 20260506173946 | 51 | 52 | 1.0 | 3.0 | 0.00 | 0.00 | 0.00 | 33 | 1019.1 |
| 20260506173444 | 54 | 59 | 0.0 | 8.0 | 0.00 | 0.00 | 0.00 | 34 | 1019.1 |
| 20260506172941 | 53 | 8 | 5.0 | 6.0 | 0.00 | 0.00 | 0.00 | 32 | 1019.2 |
| 20260506172438 | 52 | 21 | 2.0 | 3.0 | 0.00 | 0.00 | 0.00 | 33 | 1019.4 |
| 20260506171934 | 49 | 84 | 0.0 | 1.0 | 0.00 | 0.00 | 0.00 | 33 | 1019.4 |
| 20260506171432 | 53 | 77 | 0.0 | 7.0 | 0.00 | 0.00 | 0.00 | 35 | 1019.4 |
| 20260506170930 | 52 | 23 | 1.0 | 2.0 | 0.00 | 0.00 | 0.00 | 34 | 1019.4 |
| 20260506170425 | 52 | 79 | 0.0 | 6.0 | 0.00 | 0.00 | 0.00 | 32 | 1019.6 |
| 20260506165919 | 51 | 88 | 0.0 | 5.0 | 0.00 | 0.00 | 0.00 | 37 | 1019.7 |
| 20260506165417 | 51 | 104 | 0.0 | 3.0 | 0.00 | 0.00 | 0.00 | 33 | 1019.5 |
| 20260506164913 | 50 | 73 | 0.0 | 2.0 | 0.00 | 0.00 | 0.00 | 36 | 1019.7 |
| 20260506164409 | 52 | 20 | 4.0 | 7.0 | 0.00 | 0.00 | 0.00 | 34 | 1019.7 |
| 20260506163907 | 52 | 20 | 2.0 | 8.0 | 0.00 | 0.00 | 0.00 | 37 | 1019.7 |
| 20260506163402 | 50 | 87 | 0.0 | 2.0 | 0.00 | 0.00 | 0.00 | 35 | 1019.7 |
| 20260506162857 | 51 | 20 | 2.0 | 6.0 | 0.00 | 0.00 | 0.00 | 36 | 1019.8 |
| 20260506162355 | 51 | 70 | 0.0 | 7.0 | 0.00 | 0.00 | 0.00 | 35 | 1019.9 |
| 20260506161852 | 50 | 69 | 2.0 | 2.0 | 0.00 | 0.00 | 0.00 | 37 | 1019.8 |
| 20260506161349 | 51 | 26 | 5.0 | 6.0 | 0.00 | 0.00 | 0.00 | 35 | 1019.9 |
| 20260506160842 | 51 | 95 | 1.0 | 6.0 | 0.00 | 0.00 | 0.00 | 37 | 1019.9 |
| 20260506160338 | 50 | 15 | 4.0 | 6.0 | 0.00 | 0.00 | 0.00 | 39 | 1019.8 |
| 20260506155837 | 50 | 100 | 0.0 | 5.0 | 0.00 | 0.00 | 0.00 | 38 | 1019.9 |
| 20260506155333 | 48 | 90 | 0.0 | 1.0 | 0.00 | 0.00 | 0.00 | 37 | 1019.9 |
| 20260506153445 | 50 | 45 | 3.0 | 3.0 | 0.00 | 0.00 | 0.00 | 38 | 1019.7 |
| 20260506152942 | 50 | 80 | 1.0 | 2.0 | 0.00 | 0.00 | 0.00 | 41 | 1019.8 |
| 20260506152439 | 51 | 70 | 1.0 | 5.0 | 0.00 | 0.00 | 0.00 | 41 | 1019.8 |
| 20260506151938 | 48 | 97 | 1.0 | 1.0 | 0.00 | 0.00 | 0.00 | 43 | 1019.8 |
| 20260506151435 | 47 | 91 | 0.0 | 1.0 | 0.00 | 0.00 | 0.00 | 41 | 1019.8 |
| 20260506150932 | 47 | 109 | 2.0 | 2.0 | 0.00 | 0.00 | 0.00 | 42 | 1019.8 |
| 20260506150428 | 48 | 66 | 3.0 | 5.0 | 0.00 | 0.00 | 0.00 | 45 | 1019.7 |
| 20260506145925 | 47 | 114 | 2.0 | 2.0 | 0.00 | 0.00 | 0.00 | 47 | 1019.7 |
| 20260506145421 | 46 | 77 | 2.0 | 2.0 | 0.00 | 0.00 | 0.00 | 49 | 1019.6 |
| 20260506144919 | 47 | 63 | 0.0 | 0.0 | 0.00 | 0.00 | 0.00 | 51 | 1019.6 |
| 20260506144415 | 47 | 94 | 1.0 | 1.0 | 0.00 | 0.00 | 0.00 | 51 | 1019.7 |
| 20260506143914 | 46 | 83 | 0.0 | 2.0 | 0.00 | 0.00 | 0.00 | 49 | 1019.7 |
| 20260506143410 | 46 | 91 | 0.0 | 1.0 | 0.00 | 0.00 | 0.00 | 49 | 1019.7 |
| 20260506142909 | 46 | 73 | 2.0 | 5.0 | 0.00 | 0.00 | 0.00 | 49 | 1019.7 |
| 20260506142407 | 46 | 63 | 3.0 | 3.0 | 0.00 | 0.00 | 0.00 | 52 | 1019.9 |
| 20260506141904 | 46 | 73 | 1.0 | 2.0 | 0.00 | 0.00 | 0.00 | 50 | 1019.8 |
| 20260506141402 | 46 | 81 | 1.0 | 2.0 | 0.00 | 0.00 | 0.00 | 52 | 1019.8 |
| 20260506140900 | 45 | 65 | 0.0 | 1.0 | 0.00 | 0.00 | 0.00 | 60 | 1019.9 |
| 20260506140357 | 45 | 86 | 0.0 | 0.0 | 0.00 | 0.00 | 0.00 | 60 | 1019.9 |
| 20260506135854 | 45 | 86 | 0.0 | 1.0 | 0.00 | 0.00 | 0.00 | 59 | 1019.7 |
| 20260506135351 | 45 | 87 | 0.0 | 1.0 | 0.00 | 0.00 | 0.00 | 61 | 1019.7 |
| 20260506134847 | 45 | 82 | 0.0 | 1.0 | 0.00 | 0.00 | 0.00 | 61 | 1019.6 |
| 20260506134343 | 45 | 70 | 2.0 | 2.0 | 0.00 | 0.00 | 0.00 | 62 | 1019.8 |
| 20260506133840 | 45 | 88 | 0.0 | 2.0 | 0.00 | 0.00 | 0.00 | 59 | 1019.6 |
| 20260506133337 | 44 | 78 | 1.0 | 2.0 | 0.00 | 0.00 | 0.00 | 61 | 1019.6 |
| 20260506132834 | 45 | 83 | 0.0 | 1.0 | 0.00 | 0.00 | 0.00 | 62 | 1019.6 |
| 20260506132331 | 45 | 57 | 3.0 | 3.0 | 0.00 | 0.00 | 0.00 | 61 | 1019.1 |
| 20260506131829 | 45 | 60 | 1.0 | 2.0 | 0.00 | 0.00 | 0.00 | 63 | 1019.2 |
| 20260506131325 | 44 | 87 | 0.0 | 0.0 | 0.00 | 0.00 | 0.00 | 63 | 1019.4 |
| 20260506130822 | 44 | 87 | 0.0 | 0.0 | 0.00 | 0.00 | 0.00 | 63 | 1019.1 |
| 20260506130318 | 44 | 84 | 0.0 | 0.0 | 0.00 | 0.00 | 0.00 | 63 | 1019.2 |
| 20260506125816 | 44 | 87 | 0.0 | 0.0 | 0.00 | 0.00 | 0.00 | 65 | 1019.0 |
| 20260506125315 | 43 | 105 | 0.0 | 0.0 | 0.00 | 0.00 | 0.00 | 66 | 1018.9 |
| 20260506124813 | 43 | 84 | 0.0 | 0.0 | 0.00 | 0.00 | 0.00 | 66 | 1018.8 |
| 20260506124309 | 43 | 85 | 0.0 | 0.0 | 0.00 | 0.00 | 0.00 | 66 | 1018.6 |
| 20260506123807 | 43 | 78 | 0.0 | 0.0 | 0.00 | 0.00 | 0.00 | 66 | 1018.6 |
| 20260506123306 | 43 | 80 | 0.0 | 0.0 | 0.00 | 0.00 | 0.00 | 65 | 1018.5 |
| 20260506122802 | 43 | 81 | 0.0 | 0.0 | 0.00 | 0.00 | 0.00 | 66 | 1018.6 |
| 20260506122259 | 43 | 86 | 0.0 | 0.0 | 0.00 | 0.00 | 0.00 | 66 | 1018.3 |
| 20260506121757 | 43 | 83 | 0.0 | 0.0 | 0.00 | 0.00 | 0.00 | 67 | 1018.3 |
| 20260506121254 | 42 | 87 | 0.0 | 0.0 | 0.00 | 0.00 | 0.00 | 67 | 1018.3 |
| 20260506120751 | 42 | 78 | 0.0 | 0.0 | 0.00 | 0.00 | 0.00 | 68 | 1018.1 |
| 20260506120249 | 42 | 82 | 0.0 | 0.0 | 0.00 | 0.00 | 0.00 | 68 | 1017.7 |
| 20260506115746 | 42 | 85 | 0.0 | 0.0 | 0.00 | 0.00 | 0.00 | 68 | 1017.9 |
| 20260506115244 | 42 | 81 | 0.0 | 0.0 | 0.00 | 0.00 | 0.00 | 68 | 1017.6 |
| 20260506114742 | 42 | 86 | 0.0 | 0.0 | 0.00 | 0.00 | 0.00 | 68 | 1017.5 |
| 20260506114239 | 42 | 91 | 0.0 | 0.0 | 0.00 | 0.00 | 0.00 | 68 | 1017.5 |
| 20260506113738 | 42 | 87 | 0.0 | 0.0 | 0.00 | 0.00 | 0.00 | 68 | 1017.5 |
| 20260506113235 | 43 | 87 | 0.0 | 0.0 | 0.00 | 0.00 | 0.00 | 68 | 1017.4 |
| 20260506112731 | 43 | 88 | 0.0 | 0.0 | 0.00 | 0.00 | 0.00 | 68 | 1017.4 |
| 20260506112229 | 43 | 88 | 0.0 | 0.0 | 0.00 | 0.00 | 0.00 | 68 | 1017.4 |
| 20260506111726 | 43 | 88 | 0.0 | 0.0 | 0.00 | 0.00 | 0.00 | 68 | 1017.3 |
| 20260506111224 | 43 | 90 | 0.0 | 0.0 | 0.00 | 0.00 | 0.00 | 68 | 1017.3 |
| 20260506110721 | 44 | 88 | 0.0 | 0.0 | 0.00 | 0.00 | 0.00 | 68 | 1017.3 |
| 20260506110218 | 44 | 94 | 0.0 | 0.0 | 0.00 | 0.00 | 0.00 | 66 | 1017.3 |
| 20260506105715 | 44 | 90 | 0.0 | 0.0 | 0.00 | 0.00 | 0.00 | 66 | 1017.2 |
| 20260506105212 | 44 | 89 | 0.0 | 0.0 | 0.00 | 0.00 | 0.00 | 65 | 1017.3 |
| 20260506104710 | 44 | 88 | 0.0 | 0.0 | 0.00 | 0.00 | 0.00 | 64 | 1017.2 |